STARLINK-31388, 59565

Orbit data source: Space-Track

STARLINK-31388, 59565 is a payload satellite owned by SpaceX/Seattle (US) in LEO that was launched on Tue, 23 Apr 2024 UTC via an FALCON 9 launch vehicle from the Air Force Eastern Test Range (AFETR). Payload-class satellites include a variety of spacecraft equipped with specific instruments for various scientific and technological missions. These include communications satellites like Starlink; space stations such as the ISS; scientific satellites like the Hubble; Earth observation satellites from companies like Planet Labs, Umbra, and HawkEye 360; GPS; miniature CubeSats for education and research; and military/defense satellites.

Loading next visibility...
Identifier
59565, 2024-076B
Orbit
LEO
Last TLE update
16 hours ago
Origin
Manufacturer
SpaceX/Seattle
Mission
Operational spacecraft
Bus & Motor
STARLINK V2M, Unknown motor
Mass
730 kg wet, ~700 kg dry
Launch date (UTC)
2024-04-23 (1 year ago)
Launch vehicle
FALCON 9
Launch site
Air Force Eastern Test Range (AFETR)
Object type
Payload
Rocket body
Debris
Shape & HBR
Unknown
Radar Cross Section
Large (>1 m²)

Expand to show TLE details & history

TLE from 16 hours ago
0 STARLINK-31388
1 59565U 24076B   25181.77842517  .00004144  00000-0  16005-3 0  9995
2 59565  43.0030 351.8938 0000774 250.9329 109.1439 15.27576598 67978
Epoch: 2025-06-30T18:40Z
TLE epoch observation values (Epoch: 2025-06-30T18:40:55.934Z)
Latitude
-0.00002°
Longitude
152.57737°
Altitude
483.009 km
Speed
7.626 km/s
True Right ascension
23h 27m 34s
True Declination
0° 00' 00"
Sunlit
Object was in daylight at epoch
Visualization orbit readout
Latitude
25.43918°
Longitude
179.32261°
Altitude
483.385 km
Speed
7.628 km/s
Apparent Right ascension
04h 40m 52s
Apparent Declination
-14° 15' 22"
Sunlit
Object is in daylight
Visualization observer readout
Local Sidereal Time
22:11:06
Azimuth
96.431° ESE
Elevation
-14.732°
Doppler factor
1
Orbital elements
Apogee altitude
485.535 km
Perigee altitude
484.473 km
Semi-major axis
6,863.141 km
Eccentricity
0.00008
Inclination
43.003°
RAAN
351.8938°
Arg. of periapsis
250.9329°
True anomaly
Unknown
Mean anomaly
109.1439°
Eccentric anomaly
Unknown
Mean motion
3.81732 °/min
Orbital period
94.31 mins
BSTAR
0.00016005
Loading maneuver chart data...
Loading SW <> Apogee altitude chart data...
Loading historical data...
Loading historical data...
Loading historical data...
Loading historical data...
Loading historical data...
Loading historical data...
Loading historical data...

STARLINK-31388 Visibility forecast

Observer location: undefined°, undefined°

Span
Click to sort rows by Start time (UTC) header in descending order
Start Az.
Max El. time (UTC)
Max El. Az.
Max El.
End time (UTC)
End Az.
4 mins2025-07-01 13:41:38.497Z179.49° S2025-07-01 13:43:38.497Z145.213° SSE15.815°2025-07-01 13:45:38.497Z109.356° ESE
6 mins2025-07-01 15:19:38.497Z239.871° WSW2025-07-01 15:22:38.497Z112.732° SE42.209°2025-07-01 15:25:38.497Z74.485° E
5 mins2025-07-01 16:59:38.497Z290.594° WNW2025-07-01 17:01:38.497Z15.333° NNE37.98°2025-07-01 17:04:38.497Z72.252° E
5 mins2025-07-01 18:38:38.497Z295.566° NW2025-07-01 18:40:38.497Z25.511° NE42.927°2025-07-01 18:43:38.497Z96.191° ESE
5 mins2025-07-01 20:17:38.497Z260.01° W2025-07-01 20:19:38.497Z199.497° SSW29.929°2025-07-01 20:22:38.497Z143.844° SSE
|